Weather History for PAOR - December, 2012

Change the Weather History Date:

Sunday, December 16, 2012

  Actual Average Record
Temperature  
Mean Temperature -21 °F -  
Max Temperature -13 °F -6 °F 24 °F (1955)
Min Temperature -31 °F -20 °F -49 °F (1980)
Degree Days  
Heating Degree Days 86    
Moisture  
Dew Point -24 °F    
Average Humidity 77    
Maximum Humidity 84    
Minimum Humidity 71    
Precipitation  
Precipitation 0.00 in - - ()
Snow  
Snow 0.00 in - - ()
Snow Depth 16.00 in    
Sea Level Pressure  
Sea Level Pressure 29.78 in    
Wind  
Wind Speed 4 mph (NW)    
Max Wind Speed 8 mph    
Max Gust Speed -    
Visibility 8 miles    
Events Snow    
Averages and records for this station are not official NWS values.
T = Trace of Precipitation, MM = Missing Value Source: NWS Daily Summary

Daily Weather History Graph

Daily Weather History Graph

Search for Another Location

Airport or City:

Trip Planner

Search our weather history database for the weather conditions in past years. The results will help you decide how hot, cold, wet, or windy it might be!

Date:

Astronomy

Dec. 16, 2012 Rise Set
Actual Time 10:00 AM AKST 2:46 PM AKST
Civil Twilight 8:49 AM AKST 3:57 PM AKST
Nautical Twilight 7:45 AM AKST 5:02 PM AKST
Astronomical Twilight 6:47 AM AKST 5:59 PM AKST
Moon 11:21 AM AKST (12/16) 8:36 PM AKST (12/16)
Length of Visible Light 7h 07m
Length of Day
4h 46m
Waxing Crescent, 17% of the Moon is Illuminated
Dec 16
Waxing Crescent
Dec 19
First Quarter
Dec 28
Full
Jan 4
Last Quarter
Jan 11
New

Hourly Weather History & Observations

Time (AKST) Temp. Windchill Dew Point Humidity Pressure Visibility Wind Dir Wind Speed Gust Speed Precip Events Conditions
12:53 AM -13.0 °F -30.0 °F -20.0 °F 71% 29.60 in 5.0 mi NW 8.1 mph - N/A Snow Light Snow
1:04 AM -14.8 °F -32.2 °F -20.2 °F 77% 29.39 in 4.0 mi WNW 8.1 mph - N/A Snow Light Snow
1:53 AM -14.1 °F -29.9 °F -20.0 °F 75% 29.62 in 3.0 mi NW 6.9 mph - N/A Snow Light Snow
3:53 AM -15.0 °F -27.4 °F -20.9 °F 75% 29.66 in 7.0 mi NW 4.6 mph - N/A Snow Light Snow
4:23 AM -14.8 °F -24.8 °F -20.2 °F 77% 29.44 in 9.0 mi NW 3.5 mph - N/A   Clear
4:53 AM -15.0 °F -25.0 °F -20.9 °F 75% 29.68 in 10.0 mi NW 3.5 mph - N/A   Clear
5:53 AM -15.0 °F -25.0 °F -20.9 °F 75% 29.71 in 10.0 mi NW 3.5 mph - N/A   Clear
6:53 AM -16.1 °F - -20.9 °F 79% 29.73 in 7.0 mi Calm Calm - N/A Snow Light Snow
7:53 AM -17.0 °F - -22.0 °F 78% 29.74 in 9.0 mi Calm Calm - N/A Snow Light Snow
8:53 AM -17.0 °F -27.2 °F -22.0 °F 78% 29.77 in 8.0 mi WNW 3.5 mph - N/A Snow Light Snow
9:53 AM -17.0 °F -27.2 °F -22.0 °F 78% 29.79 in 6.0 mi WNW 3.5 mph - N/A Snow Light Snow
10:53 AM -16.1 °F - -20.9 °F 79% 29.80 in 3.0 mi Calm Calm - N/A Snow Light Snow
11:04 AM -16.6 °F -26.8 °F -20.2 °F 84% 29.56 in 4.0 mi NW 3.5 mph - N/A Snow Light Snow
11:53 AM -15.0 °F -27.4 °F -20.9 °F 75% 29.81 in 9.0 mi WNW 4.6 mph - N/A   Mostly Cloudy
12:16 PM -14.8 °F -24.8 °F -20.2 °F 77% 29.57 in 10.0 mi WNW 3.5 mph - N/A   Scattered Clouds
12:53 PM -15.0 °F - -20.9 °F 75% 29.82 in 10.0 mi Calm Calm - N/A   Scattered Clouds
1:53 PM -15.0 °F - -22.0 °F 71% 29.84 in 10.0 mi Calm Calm - N/A   Scattered Clouds
2:53 PM -18.0 °F - -23.1 °F 78% 29.86 in 9.0 mi Calm Calm - N/A   Scattered Clouds
3:53 PM -23.1 °F - -27.0 °F 82% 29.88 in 9.0 mi Calm Calm - N/A   Scattered Clouds
4:53 PM -26.0 °F - -31.0 °F 77% 29.91 in 10.0 mi Calm Calm - N/A   Scattered Clouds
5:53 PM -27.9 °F - -34.1 °F 73% 29.93 in 10.0 mi Calm Calm - N/A   Scattered Clouds
6:53 PM -29.0 °F - -34.1 °F 77% 29.94 in 10.0 mi Calm Calm - N/A   Partly Cloudy
7:53 PM -29.9 °F - - N/A% 29.96 in 10.0 mi Calm Calm - N/A Snow Light Snow
8:53 PM -27.9 °F - -33.0 °F 77% 29.96 in 6.0 mi Calm Calm - N/A Snow Light Snow
9:53 PM -29.0 °F - -35.0 °F 73% 29.98 in 10.0 mi Calm Calm - N/A Snow Light Snow
10:53 PM -29.9 °F - - N/A% 29.99 in 10.0 mi Calm Calm - N/A Snow Light Snow
11:53 PM -31.0 °F - - N/A% 29.99 in 10.0 mi Calm Calm - N/A Snow Light Snow